Regional Weather Roundup
Issued by NWS Nashville, TN

Home | Current Version | Previous Version | Text Only | Print | Product List | Glossary On
Versions: 1 2 3 4 5 6 7 8 9 10 11 12 13 14 15 16 17 18 19 20 21 22 23 24 25 26 27 28 29 30 31 32 33 34 35 36 37 38 39 40 41 42 43 44 45 46 47 48 49 50
000
ASUS44 KOHX 252315
RWROHX
MIDDLE TENNESSEE HOURLY WEATHER ROUNDUP
NATIONAL WEATHER SERVICE NASHVILLE TN
600 PM CDT SAT APR 25 2015

NOTE: "FAIR" INDICATES FEW OR NO CLOUDS BELOW 12,000 FEET WITH
NO SIGNIFICANT WEATHER AND/OR OBSTRUCTIONS TO VISIBILITY.

* THESE REPORTS ARE NOT UNDER NWS QUALITY CONTROL AND MAY NOT
  REPORT WEATHER SUCH AS PRECIPITATION AND FOG.


TNZ005>011-023>034-057-059-062>066-078-080-260000
...NORTHERN MIDDLE TENNESSEE...

CITY           SKY/WX    TMP DP  RH WIND       PRES   REMARKS
CLARKSVILLE    SUNNY     80  52  37 W20G25    29.46F
CROSSVILLE     MOSUNNY   75  51  43 SW10G25   29.58F
NASHVILLE      MOSUNNY   82  52  35 VRB7G29   29.49F
SMYRNA         SUNNY     81  58  45 SW13G24   29.51F
SPARTA         SUNNY     79  61  53 SW14      29.53F
$$
TNZ056-058-060-061-075>077-079-093>097-260000
...SOUTHERN MIDDLE TENNESSEE...

CITY           SKY/WX    TMP DP  RH WIND       PRES   REMARKS
COLUMBIA       SUNNY     79  32  18 S15       29.52F
MCMINNVILLE    SUNNY     75  63  64 SW16      29.56F
SHELBYVILLE    SUNNY     75  64  69 S17       29.57F
TULLAHOMA      SUNNY     73  61  64 SW13      29.59F
WINCHESTER     MOSUNNY   75  64  69 SW10      29.60F
$$


...KEY TO REMARKS...
VSB - VISIBILITY IN MILES
WCI - WIND CHILL INDEX
HX  - HEAT INDEX



USA.gov is the U.S. government's official web portal to all federal, state and local government web resources and services.